Regional Weather Roundup
Issued by NWS

Home | Current Version | Previous Version | Graphics & Text | Print | Product List | Glossary On
Versions: 1 2 3 4 5 6 7 8 9 10 11 12 13 14 15 16 17 18 19 20 21 22 23 24 25 26 27 28 29 30 31 32 33 34 35 36 37 38 39 40 41 42 43 44 45 46 47 48 49 50
000
ASUS43 KLMK 261402
RWRKY
KENTUCKY REGIONAL WEATHER ROUNDUP
NATIONAL WEATHER SERVICE LOUISVILLE KY
1000 AM EDT MON JUN 26 2017

NOTE "FAIR" INDICATES FEW OR NO CLOUDS BELOW 12,000 FEET
WITH NO SIGNIFICANT WEATHER AND/OR OBSTRUCTIONS TO VISIBILITY.

KYZ001>023-026-027-061>063-070>075-261500-
WESTERN AND SOUTH CENTRAL KENTUCKY

CITY           SKY/WX    TMP DP  RH WIND       PRES   REMARKS
PADUCAH        MOSUNNY   73  52  47 N3        30.22F
HENDERSON      SUNNY     70  54  56 W5        30.23R
OWENSBORO      SUNNY     70  55  59 S3        30.22S
HOPKINSVILLE   SUNNY     71  53  53 N7        30.22S
BOWLING GREEN  SUNNY     71  53  52 N5        30.22R
GLASGOW        NOT AVBL
$$

KYZ024-025-028>034-038-045-046-053-261500-
NORTH CENTRAL KENTUCKY

CITY           SKY/WX    TMP DP  RH WIND       PRES   REMARKS
LOUISVILLE/SDF MOSUNNY   71  49  45 CALM      30.20R
LOUISVILLE/LOU SUNNY     70  49  47 VRB5      30.20S
FORT KNOX      SUNNY     68  51  54 CALM      30.19S
$$

KYZ035>037-039>044-047>052-055>060-089>105-261500-
NORTHEAST KENTUCKY

CITY           SKY/WX    TMP DP  RH WIND       PRES   REMARKS
LEXINGTON      SUNNY     69  50  50 NW6       30.20S
COVINGTON      MOSUNNY   65  52  62 SW7       30.18R
FRANKFORT      SUNNY     69  48  47 W3        30.19S
$$

KYZ054-064>069-076>088-106>120-261500-
SOUTHEAST KENTUCKY

CITY           SKY/WX    TMP DP  RH WIND       PRES   REMARKS
JACKSON        SUNNY     66  53  63 VRB3      30.19F
LONDON         CLOUDY    66  53  63 CALM      30.20S
SOMERSET       SUNNY     66  52  59 CALM      30.22S
MIDDLESBORO    MOSUNNY   64  55  71 CALM      30.22S
MONTICELLO     CLOUDY    69  56  62 NW8       30.22S
$$





USA.gov is the U.S. government's official web portal to all federal, state and local government web resources and services.